Lapse_Rate
0.9 1.0 1.0 2.5 6.4 6.5 6.5 6.5 6.5 6.5 6.5 5.4 4.9 5.6 6.2 5.6 6.5 6.5 1.4 2.3 1.3 0.7 0.3 0.7 1.7 3.0 3.3 3.1 2.8 2.9 3.3 3.4 3.4 3.4 3.6 4.4 4.5 4.9 4.9 5.2 5.6 5.8 6.3 5.9 6.2 6.6 6.3 5.8 5.5
0.1 2.6 1.5 1.9 6.5 6.5 6.5 6.5 6.5 6.5 5.7 4.8 4.7 5.2 6.2 6.5 4.4 2.7 2.1 1.3 1.8 0.3 0.3 0.7 1.0 1.9 3.2 3.4 3.2 3.3 3.6 3.6 3.7 4.0 4.2 4.8 5.1 4.9 5.0 5.3 5.7 6.2 6.3 7.3 6.9 6.7 6.8 5.9 5.4
2.3 3.5 3.2 6.5 6.5 6.5 6.5 6.5 6.5 6.0 4.7 5.5 6.0 5.7 4.4 5.7 4.1 1.8 1.6 0.8 0.9 0.4 0.6 0.5 0.8 1.1 2.1 3.1 3.3 3.5 3.8 3.6 3.5 3.8 4.0 4.5 5.2 5.9 5.0 5.2 5.6 6.4 6.9 8.0 7.2 6.9 6.9 5.5 5.1
3.4 2.7 2.8 6.5 6.5 6.5 6.5 6.5 6.4 6.4 4.7 4.6 5.5 6.5 5.2 3.5 2.1 2.4 1.1 1.0 0.8 0.9 0.4 0.6 0.6 0.8 1.8 2.8 3.7 3.9 3.6 3.7 3.7 3.4 3.6 4.3 5.3 5.5 5.9 5.5 5.8 6.7 7.0 7.4 7.1 6.5 5.8 5.4 5.3
1.1 1.7 6.5 6.5 6.5 6.5 6.5 5.8 5.6 6.5 6.0 5.0 5.3 6.3 5.5 3.3 2.7 1.4 0.9 1.2 0.7 0.0 -0.2 0.3 1.1 1.6 1.4 2.6 3.8 4.1 3.9 3.1 3.4 3.5 3.6 4.1 4.8 5.0 5.4 5.2 6.0 6.7 6.7 7.1 6.4 5.8 5.5 5.6 5.6
3.5 3.0 6.5 6.5 6.5 6.5 6.5 5.0 5.8 6.0 5.2 5.4 6.0 5.3 4.8 2.0 1.7 0.4 0.1 -0.4 -0.3 -0.8 -1.1 -0.3 1.0 1.8 2.3 2.8 3.7 4.4 4.0 3.9 3.4 3.3 3.7 4.1 4.4 4.9 5.1 5.1 4.2 6.3 6.4 5.5 6.2 5.6 5.9 5.7 5.6
5.8 6.5 6.5 6.5 6.5 6.5 6.5 4.9 6.4 6.3 6.0 5.9 4.2 6.5 4.4 2.4 1.8 0.6 -0.6 -1.1 -1.3 -1.1 -0.8 -0.7 0.4 1.4 2.2 3.1 3.7 4.9 3.9 4.2 3.8 3.9 4.2 4.0 3.6 3.6 4.8 5.1 5.0 4.9 5.2 5.8 6.0 5.8 5.9 5.8 5.6
2.6 6.5 6.5 6.5 6.5 6.5 6.2 5.4 5.8 5.4 5.8 4.6 3.3 6.5 5.6 1.6 1.2 0.2 -0.3 -1.2 -1.2 -1.3 -1.0 -0.7 0.1 1.1 1.6 1.8 3.5 4.4 4.0 4.4 4.1 4.5 4.7 4.8 4.1 4.3 4.5 5.6 5.4 5.1 5.5 6.6 6.0 6.0 5.9 6.0 5.5
3.4 6.5 6.5 6.5 6.5 6.5 5.4 6.4 5.3 5.0 5.4 5.1 4.5 1.7 2.7 0.6 0.4 0.7 0.6 -0.3 -0.6 -0.9 -0.8 -1.1 -0.5 0.2 0.7 1.4 2.1 4.2 3.8 4.0 4.3 4.3 4.3 4.6 4.0 4.0 4.1 4.8 5.2 5.4 4.1 6.7 5.4 6.2 6.0 6.3 5.8
6.3 6.5 6.5 6.5 6.5 6.5 6.2 6.1 5.3 6.0 4.9 5.1 5.0 3.0 -0.1 0.2 0.1 1.0 0.3 -0.5 -1.3 -1.4 -1.7 -1.3 -0.6 -0.2 0.2 1.0 1.7 3.8 4.4 4.4 4.5 4.3 3.9 3.0 3.4 3.4 3.6 4.6 5.6 5.1 5.8 5.6 4.8 5.8 5.9 5.6 5.8
5.5 6.5 6.5 6.2 5.2 4.6 6.1 6.0 5.8 6.1 6.5 4.6 4.6 3.4 0.1 0.3 0.8 1.0 0.9 0.4 -0.5 -1.2 -1.3 -1.7 -0.5 -0.2 0.1 0.4 0.6 2.8 4.2 4.0 3.7 3.3 3.2 3.0 3.5 3.7 3.9 4.5 5.9 5.7 6.5 5.9 5.5 5.6 4.9 5.5 5.6
6.5 6.2 6.0 5.9 5.3 5.2 6.5 5.5 6.1 4.9 5.8 5.1 4.2 2.9 0.1 0.3 0.3 0.3 0.7 -0.1 -1.5 -1.7 -1.0 -1.6 -0.6 -0.1 0.0 0.3 0.7 2.7 4.8 4.4 3.8 3.4 3.3 3.1 3.8 4.2 4.6 4.8 5.4 5.8 5.2 5.2 4.8 4.3 3.8 4.4 4.5
6.5 6.5 5.6 5.3 5.1 4.8 5.0 6.3 6.1 5.6 4.7 3.6 3.3 3.2 0.5 0.5 0.5 0.8 1.0 0.8 -1.5 -1.6 -1.2 -1.1 -0.9 0.2 0.3 0.7 0.9 2.5 3.9 4.1 4.1 3.7 3.5 3.7 4.0 4.4 4.9 4.9 5.4 5.5 4.6 4.7 3.5 4.1 4.3 3.9 4.2
6.1 6.0 6.2 5.5 5.8 5.7 6.4 6.4 5.7 4.6 3.6 3.4 3.0 2.4 0.9 0.9 1.0 0.8 0.5 -0.1 -1.0 -0.8 -1.1 -1.1 -0.5 0.3 0.2 0.9 0.7 2.0 3.1 4.0 3.9 3.9 3.6 3.9 4.2 4.4 4.7 4.3 5.1 4.7 4.1 4.7 4.0 3.9 4.2 3.4 4.4
5.9 6.5 6.5 6.5 6.0 6.4 5.6 6.5 6.5 4.5 3.7 3.5 3.1 2.7 1.5 1.7 1.9 1.8 0.8 0.4 0.1 -0.5 -1.3 -1.1 -0.3 0.3 0.4 0.6 0.5 1.6 2.6 3.6 3.6 3.9 3.4 3.9 4.2 4.4 4.7 4.5 4.1 4.4 3.8 4.6 4.1 3.9 3.8 2.9 4.7
6.5 6.5 6.5 6.5 6.5 6.2 5.9 6.5 6.5 4.1 3.7 3.8 3.1 3.0 2.9 2.6 2.4 2.2 1.7 0.7 -0.2 -1.1 -1.7 -1.1 0.5 0.3 0.2 0.1 0.3 1.3 3.2 3.8 4.3 3.8 3.5 4.2 4.4 4.2 3.7 4.9 4.4 3.6 3.1 4.0 4.3 4.2 4.3 4.0 4.0
6.5 6.5 6.5 6.5 6.5 6.5 6.5 6.5 6.5 4.7 5.2 5.2 4.0 2.8 2.5 3.2 3.1 1.2 2.5 0.9 -1.5 -1.9 -1.6 -1.4 -0.6 -0.2 0.1 0.3 0.5 1.2 3.9 4.5 4.2 4.2 4.0 4.7 4.7 4.1 4.0 4.0 3.6 3.3 3.6 4.1 4.4 4.4 4.9 4.6 4.3
6.5 6.5 6.5 6.5 6.5 6.5 6.5 6.5 6.5 4.7 5.1 4.6 3.6 2.9 2.3 2.9 3.2 1.7 1.1 1.7 -1.4 -2.3 -1.7 -1.1 -0.5 0.1 0.5 0.9 1.2 2.0 4.4 4.8 4.5 4.9 4.4 4.8 4.8 4.2 3.7 3.6 3.4 3.5 4.7 4.2 4.4 4.3 4.0 4.7 4.5
6.5 6.5 6.5 6.5 6.5 6.5 6.5 6.5 6.5 6.0 5.1 5.6 4.0 3.2 3.1 2.7 1.8 -0.2 -1.6 -0.6 -2.4 -2.5 -1.7 -1.1 -0.4 1.1 1.6 1.9 2.1 2.6 4.9 4.0 4.4 4.9 4.8 4.9 4.8 4.4 4.0 3.5 3.2 4.2 5.4 4.5 4.3 4.8 4.6 3.6 4.9
6.5 6.5 6.5 6.5 6.5 6.5 6.5 6.5 6.5 6.5 6.4 4.9 4.6 3.6 3.6 3.3 2.9 0.6 -1.9 -1.2 -3.0 -3.2 -1.7 -0.8 0.2 1.4 1.3 2.6 2.2 1.2 2.8 4.0 3.9 3.9 3.8 4.9 4.9 4.4 4.5 4.1 3.6 5.0 5.4 4.3 3.9 5.5 3.7 3.9 5.1
6.5 6.5 6.5 6.5 6.5 6.5 6.5 6.5 6.5 6.5 6.2 5.0 5.2 4.3 4.9 4.5 3.0 0.0 -0.9 -0.2 -2.5 -2.0 -1.9 -0.7 1.0 1.4 1.5 1.7 1.1 1.8 3.7 3.5 3.4 3.1 3.5 4.2 4.9 4.3 4.4 4.2 4.2 4.9 5.4 4.8 4.6 5.4 5.9 5.7 4.1
6.5 6.5 6.5 6.5 6.5 6.5 6.5 6.5 6.5 6.5 6.5 6.5 6.0 5.7 5.8 5.0 3.5 1.1 0.2 0.6 -1.6 -2.1 -1.3 -0.3 1.0 1.1 1.5 1.5 1.8 2.0 3.0 3.4 3.6 3.8 3.0 3.1 4.1 4.5 4.2 4.1 4.7 5.7 5.2 4.5 5.0 5.6 5.5 6.0 5.6
6.5 6.5 6.5 6.5 6.5 6.5 6.5 6.5 6.5 6.5 6.5 6.5 6.5 5.6 5.3 4.8 3.1 1.5 1.0 -0.3 -0.7 -1.1 -1.1 -0.2 1.0 1.3 1.2 1.5 1.8 2.4 3.7 4.8 3.7 3.7 3.6 3.5 3.6 4.5 4.5 4.1 3.9 4.9 5.8 6.0 5.1 4.4 4.0 5.4 4.2
6.5 6.5 6.5 6.5 6.5 6.5 6.5 6.5 6.5 6.5 6.5 6.5 6.5 6.1 6.6 5.6 3.7 2.4 1.6 1.4 1.1 2.1 0.3 0.8 1.6 1.6 2.1 1.5 1.9 3.3 3.7 3.7 4.1 4.2 4.1 3.8 3.4 4.0 4.4 3.9 3.6 4.9 6.4 5.7 4.4 3.5 3.8 3.1 3.6
6.5 6.5 6.5 6.5 6.5 6.5 6.5 6.5 6.5 6.5 6.5 6.5 6.5 6.2 6.3 6.4 4.5 2.2 2.2 0.7 1.6 1.0 1.5 1.3 1.5 1.7 2.0 1.6 2.2 3.3 4.0 4.1 4.3 4.2 4.8 4.5 4.0 3.8 3.6 4.3 4.3 4.5 5.5 5.3 5.1 4.5 4.4 4.0 3.8
6.5 6.5 6.5 6.5 6.5 6.5 6.5 6.5 6.5 6.5 6.4 6.4 6.7 6.8 6.9 6.9 6.8 3.4 1.5 0.3 1.8 2.0 1.3 1.5 1.4 1.6 2.0 1.9 2.5 4.6 4.2 5.0 4.7 5.1 5.3 5.2 5.0 4.2 3.6 3.7 4.2 4.5 4.8 5.1 4.8 5.2 5.0 4.7 4.8
6.5 6.5 6.5 6.5 6.5 6.5 6.5 6.5 6.5 6.5 6.5 6.5 6.5 6.7 6.7 7.0 7.1 5.0 2.0 0.1 1.7 1.6 0.5 0.6 1.3 2.0 2.2 2.2 2.1 3.0 3.5 4.1 4.1 4.6 5.1 5.2 4.9 4.6 4.3 4.8 5.1 5.9 5.3 5.0 4.6 4.2 5.2 5.2 4.9
6.5 6.5 6.5 6.5 6.5 6.5 6.5 6.5 6.5 6.5 6.5 6.5 6.5 6.5 6.9 7.1 7.1 5.7 4.7 2.6 1.9 1.1 0.8 1.4 1.4 1.7 2.1 2.6 1.9 2.8 3.1 3.1 3.3 4.6 5.0 4.8 5.0 4.6 4.0 4.4 5.1 5.2 4.6 4.6 4.3 5.1 5.3 5.0 4.8
6.5 6.5 6.5 6.5 6.5 6.5 6.5 6.5 6.5 6.5 6.5 6.5 6.5 6.8 7.0 7.0 7.1 6.1 6.4 5.7 5.4 3.1 1.1 1.1 1.5 2.2 2.8 3.1 2.4 3.0 3.1 3.0 3.2 3.6 4.2 4.2 4.5 4.5 4.4 4.6 4.8 4.3 4.3 4.9 5.2 5.7 5.8 5.1 4.6
6.5 6.5 6.5 6.5 6.5 6.5 6.5 6.5 6.5 6.5 6.5 6.5 6.5 6.8 7.0 7.2 6.8 5.4 5.8 5.2 5.6 4.8 2.5 1.1 1.5 2.7 3.4 3.4 2.9 3.2 3.3 3.3 3.6 3.6 4.1 4.3 4.1 4.0 4.9 5.2 5.2 5.2 4.8 4.9 5.3 5.8 6.4 5.1 4.2
Wind_Speed
7 4 2 4 3 4 4 7 3 6 4 3 4 4 6 3 4 4 1 11 10 11 14 17 18 17 15 16 18 16 17 19 20 21 25 24 25 24 22 20 22 21 22 22 24 24 25 26 25
5 3 4 2 4 1 5 5 6 6 5 3 4 4 1 0 2 5 5 8 13 12 14 16 21 21 18 17 16 17 19 19 18 19 19 20 21 24 23 21 20 21 21 20 23 24 25 26 26
5 3 3 4 4 6 5 5 1 7 5 2 3 1 6 4 5 8 4 13 10 9 12 14 20 21 20 19 18 18 18 19 21 21 22 20 22 17 22 20 19 22 21 20 21 24 26 25 26
3 4 4 2 9 6 6 4 5 9 7 4 1 4 2 2 9 8 12 13 11 8 10 14 18 19 18 18 17 17 20 21 21 21 21 23 23 23 18 19 18 21 22 20 22 24 25 25 24
4 3 1 3 7 5 5 7 3 8 5 6 4 4 2 4 3 10 14 12 12 8 8 12 14 15 18 17 17 18 20 23 24 22 21 19 20 20 22 24 21 18 21 19 22 24 24 22 23
3 3 2 6 7 5 4 8 4 10 12 6 4 7 4 4 6 7 9 9 8 10 7 11 14 14 13 17 18 18 22 23 21 21 18 18 18 16 18 21 29 24 18 23 23 23 23 20 22
6 4 5 4 6 8 4 5 4 7 6 6 7 7 3 3 3 4 7 8 7 7 7 6 10 13 14 15 19 20 24 24 23 21 18 17 16 14 13 15 19 20 21 26 25 24 22 21 24
5 4 3 5 4 11 4 6 2 5 6 5 6 5 5 5 8 6 6 7 7 7 7 7 7 9 10 11 13 15 25 24 23 21 19 16 14 15 13 15 18 23 20 27 24 23 23 21 25
5 2 5 7 7 5 6 8 3 6 4 3 5 8 4 13 10 7 4 3 4 5 7 6 7 6 9 9 10 12 24 24 23 20 16 13 10 12 15 18 24 27 33 24 24 25 23 23 24
6 5 11 7 7 10 4 4 10 6 9 6 4 3 4 17 15 14 11 11 7 9 9 9 7 7 7 7 10 9 14 16 16 13 12 10 11 11 17 20 27 32 33 33 30 24 23 20 19
7 9 6 6 7 7 5 5 3 5 8 8 8 3 7 6 11 12 11 10 14 9 7 9 8 7 8 6 6 6 7 7 8 11 12 11 9 10 9 14 20 19 25 21 25 23 15 18 18
4 6 13 6 7 5 12 3 6 6 15 12 11 5 8 11 15 14 11 11 9 8 9 8 8 7 7 5 5 6 6 6 5 10 13 8 5 5 4 6 13 11 14 14 15 10 16 16 15
6 3 6 8 8 8 12 16 10 15 17 12 11 7 12 14 18 15 16 9 7 9 10 10 7 7 7 7 5 7 8 6 9 11 13 11 5 4 5 4 10 12 13 14 12 10 12 12 12
4 10 15 10 15 9 13 15 4 8 10 9 8 10 10 15 19 16 8 10 11 11 12 10 8 7 7 7 7 7 7 8 9 11 13 13 10 5 4 4 7 11 15 14 17 9 7 6 12
6 7 7 6 6 8 5 14 11 10 10 9 11 10 10 15 15 17 19 18 16 13 13 14 11 8 8 7 6 6 6 7 6 8 13 14 12 7 6 7 6 10 16 15 14 12 10 5 10
4 2 2 5 8 7 9 24 8 9 9 11 10 9 9 7 15 17 17 16 13 13 16 13 10 10 7 6 5 4 6 6 6 7 11 14 13 11 4 10 10 9 13 12 9 9 7 6 7
3 4 5 3 4 4 8 11 4 4 5 7 8 9 10 11 12 14 17 17 17 17 16 15 11 10 8 6 5 5 5 4 6 8 8 12 14 14 7 6 7 14 7 8 9 9 9 8 8
7 4 4 5 4 5 9 16 7 8 6 9 9 10 9 10 16 7 14 17 16 15 15 15 11 10 8 6 5 3 3 3 3 6 7 13 13 17 9 7 8 11 8 7 8 11 5 9 9
4 4 4 0 4 6 8 14 10 8 8 9 8 9 10 11 10 6 8 11 13 14 15 15 14 13 10 8 8 6 5 2 3 4 8 13 12 18 11 8 8 7 10 12 10 9 11 4 8
6 6 5 4 8 7 14 25 15 7 7 9 9 10 10 9 5 4 8 12 16 18 16 14 14 16 12 9 7 3 3 2 2 2 4 11 12 18 13 11 11 12 9 10 13 12 5 3 9
7 9 3 10 2 6 7 22 10 5 6 8 8 10 13 12 8 8 10 13 13 17 18 16 17 16 13 8 5 4 4 3 2 2 2 3 12 14 13 13 12 14 11 9 12 11 11 9 2
12 6 13 7 3 4 4 13 12 4 11 7 13 14 19 12 9 11 14 13 18 17 14 15 17 15 13 11 8 12 6 3 2 2 2 2 4 12 16 15 15 15 9 12 11 9 7 12 9
6 7 9 9 5 1 4 3 4 4 5 12 13 12 14 15 11 13 17 19 15 16 15 16 16 14 11 11 8 7 7 5 4 3 4 4 3 5 14 15 15 16 10 10 12 9 7 8 5
2 4 4 1 3 5 6 7 16 5 5 6 7 13 21 13 9 13 17 13 13 12 13 16 16 13 11 11 8 9 10 8 6 5 4 4 3 3 7 13 16 14 9 11 9 8 8 6 5
4 1 3 2 2 7 10 7 14 9 14 8 8 13 19 15 9 10 15 16 17 19 17 16 15 14 13 13 9 9 10 11 10 9 5 6 4 3 6 12 13 13 12 12 10 10 6 6 5
8 8 5 6 4 8 7 7 5 1 6 8 13 17 20 21 16 16 20 19 20 22 20 19 16 15 14 14 11 10 10 7 7 9 6 5 5 6 8 8 12 15 12 12 9 7 5 5 4
5 9 8 8 2 2 4 6 5 2 11 15 19 23 25 25 22 14 18 20 21 22 21 19 18 15 14 16 10 9 10 10 9 8 6 4 5 6 8 12 12 14 13 9 6 3 4 6 5
13 6 3 2 7 13 3 3 5 7 10 13 17 25 28 24 24 3 12 17 18 18 16 16 18 17 15 15 11 10 11 10 9 10 9 7 7 8 6 8 12 14 13 14 12 10 5 6 4
4 4 5 5 5 8 9 5 6 4 1 7 12 20 23 22 18 2 8 10 11 13 16 16 17 17 15 15 12 12 11 11 10 10 9 9 8 9 11 10 9 11 13 13 13 13 9 7 7
2 2 5 4 4 2 3 6 7 2 6 4 4 14 21 20 15 13 10 13 11 11 14 16 16 15 16 15 13 12 12 12 11 10 10 11 11 9 12 11 12 13 12 12 13 15 15 9 7
Wind_Direction
160 176 96 45 52 67 268 261 263 276 317 213 140 139 185 157 160 207 157 178 135 153 165 171 164 159 157 152 145 140 136 133 134 135 132 134 135 136 136 136 135 137 139 137 135 133 130 133 125
140 141 45 86 101 88 266 259 254 251 239 120 108 108 111 219 157 142 128 171 154 155 165 174 169 165 163 161 152 146 142 139 134 130 131 136 138 140 140 142 142 142 148 150 144 140 136 136 127
154 74 95 126 145 192 220 224 91 331 318 280 197 75 156 196 153 171 222 156 145 154 167 178 175 169 167 166 160 152 147 144 142 140 142 144 147 150 143 146 152 150 151 154 151 142 141 136 129
132 19 30 121 233 244 217 233 330 327 313 199 228 125 265 227 153 188 145 144 146 162 174 179 177 172 169 170 166 158 153 151 143 134 142 155 155 149 148 147 156 156 154 156 152 146 144 137 134
40 57 97 255 255 250 235 265 284 280 265 252 184 179 248 353 115 140 145 150 155 161 162 165 179 182 170 172 170 165 154 141 140 137 141 143 150 152 159 154 147 162 154 155 151 143 151 140 134
58 100 93 240 253 262 261 234 250 253 244 244 137 130 215 341 144 162 140 145 147 152 154 160 176 178 175 173 173 171 151 151 147 148 146 142 146 155 158 158 156 172 157 145 153 152 151 139 137
134 107 222 249 275 287 195 226 218 271 192 216 143 144 262 231 145 138 129 121 129 134 143 158 170 173 177 186 179 176 159 158 157 161 166 169 167 169 168 170 163 161 163 155 155 157 151 135 135
124 116 215 239 223 275 228 303 289 50 301 333 131 189 232 201 140 105 94 121 133 141 152 164 180 179 167 177 193 176 164 164 165 170 180 185 187 187 195 187 179 165 155 160 150 162 147 131 137
132 128 203 226 187 231 329 5 309 330 272 320 217 159 235 131 126 118 123 127 156 174 174 169 177 177 169 165 178 181 172 171 172 180 186 193 196 200 204 198 193 167 168 169 153 164 141 138 143
164 190 208 199 206 259 313 322 309 336 317 300 313 19 55 144 159 171 183 186 192 186 191 179 180 179 167 162 162 163 168 183 188 182 164 166 176 190 195 191 183 183 171 155 152 157 135 131 147
204 223 200 232 222 253 261 274 256 252 280 246 260 230 151 159 181 191 199 199 199 189 185 188 183 179 168 164 153 155 147 152 151 154 166 166 173 187 172 193 194 181 165 154 153 145 131 139 147
240 215 217 252 228 256 268 277 257 200 251 255 241 215 169 176 195 204 205 210 188 187 190 185 183 175 174 155 160 170 164 161 167 173 168 159 174 181 170 176 172 185 157 154 140 147 134 135 143
237 245 249 253 250 248 267 270 257 264 262 263 249 191 193 195 207 210 208 203 170 191 193 188 166 178 169 166 161 174 186 176 176 175 176 167 169 177 172 169 175 161 155 157 140 150 131 135 142
225 218 247 252 267 257 263 273 215 254 257 274 257 228 214 201 209 212 193 205 183 184 192 178 176 181 162 177 167 175 178 187 175 184 186 176 171 180 175 160 170 165 158 161 148 150 137 136 138
239 262 264 220 227 255 249 265 238 255 273 273 270 263 209 215 219 215 209 202 190 192 177 181 175 177 172 174 165 163 164 171 182 184 171 180 173 168 186 168 154 152 152 155 145 138 127 121 143
230 210 208 224 200 241 172 260 274 249 254 274 296 291 287 233 217 218 217 205 187 170 180 171 172 177 174 171 163 159 168 171 180 173 174 177 169 160 153 184 166 131 149 154 149 147 140 142 138
236 232 206 291 228 243 179 276 261 322 298 281 292 293 291 291 277 226 209 196 180 174 169 169 170 178 174 171 167 165 159 168 176 177 175 186 169 159 154 138 143 148 159 156 153 149 151 145 143
237 240 238 214 251 235 265 272 266 282 275 274 284 289 278 283 291 258 204 194 173 166 165 162 167 172 169 167 160 149 156 179 170 185 185 187 175 163 149 138 145 158 152 165 161 151 142 149 149
221 241 213 172 283 326 273 278 283 279 288 282 270 274 280 287 302 224 155 162 153 158 161 163 163 177 170 174 172 178 177 155 185 194 184 188 176 169 161 151 149 158 182 173 159 148 144 129 141
226 239 248 261 246 260 282 279 284 254 250 245 266 280 274 282 273 192 145 177 171 166 164 163 170 179 177 180 178 150 134 129 122 174 196 189 188 173 171 165 167 176 176 172 165 160 137 118 161
222 231 170 237 289 259 289 283 270 257 248 262 260 248 272 254 220 186 175 197 169 172 171 169 174 178 177 168 129 107 91 87 124 181 201 216 186 169 173 173 176 178 175 176 174 164 164 157 140
253 214 243 264 144 250 140 289 270 234 261 285 283 291 288 281 218 198 184 191 187 181 167 165 174 176 174 160 164 168 175 145 130 139 141 187 225 187 178 177 183 176 175 167 178 170 169 159 161
224 226 211 232 209 263 250 273 34 73 275 269 273 273 280 272 213 194 194 194 196 174 168 164 169 173 165 160 173 161 148 145 136 128 146 162 186 196 183 174 176 173 170 180 162 166 146 163 147
283 261 273 174 155 257 206 187 280 231 222 266 277 312 305 274 237 210 199 166 176 181 165 167 170 169 165 171 176 165 155 149 148 154 158 153 136 174 170 176 167 170 160 172 159 136 139 136 134
165 38 306 301 178 239 176 205 244 296 288 277 313 311 335 318 244 196 174 173 174 178 178 173 170 171 174 176 171 167 161 161 161 164 165 153 144 146 168 163 167 162 161 163 164 130 129 156 143
197 166 193 220 221 258 185 238 244 288 352 344 348 347 335 333 330 203 185 178 178 180 179 176 175 169 176 177 173 172 164 168 162 173 169 169 159 143 130 144 159 155 146 136 121 129 156 143 185
194 216 198 248 219 258 219 287 316 84 16 3 353 341 330 321 330 228 182 177 175 178 181 177 174 172 176 181 168 174 168 165 162 166 166 157 136 142 141 147 146 145 147 128 112 129 184 170 188
208 149 196 249 234 248 241 251 247 348 352 360 8 337 322 320 335 280 181 177 176 172 172 173 177 174 175 181 171 175 177 168 163 168 175 160 148 144 145 144 158 157 161 172 172 199 210 186 188
146 215 207 195 174 249 264 259 199 193 277 3 9 315 312 319 325 275 175 174 184 173 169 171 175 174 178 184 173 173 178 172 163 172 167 173 161 156 166 169 161 164 168 181 189 200 217 209 204
189 155 161 177 220 202 186 262 184 100 83 91 281 312 320 318 310 264 186 156 167 183 171 174 173 177 184 186 178 175 173 172 175 175 177 169 175 170 173 176 178 174 178 187 195 205 216 215 214